sat.trackr.live / text

‹ back to catalog

STARLINK-3175

NORAD 51140 · 2022-005AN

PAYLOAD ACTIVE UNKNOWN

§ Identity

Operator
Country
US
Launch date
2022-01-19
Launch site
AFETR
Launch vehicle
Mass (kg)
RCS (m²)

Purposes: comms

External: N2YO · Heavens-Above · Gunter

§ Orbital elements

Epoch: 2026-05-25T03:53:35.115936Z

Period
95.44 min
Inclination
53.2144°
Eccentricity
0.0001463
Mean motion
15.08832523 rev/d
Perigee alt
538.8 km
Apogee alt
540.8 km
Semi-major
6,917.9 km
B*
-2.2313e-5
RAAN
315.8307°
Arg perigee
83.2655°
Mean anomaly
276.8504°
Rev number
24,028

§ Raw data

STARLINK-31751 51140U 22005AN  26145.16221199 -.00000643  00000+0 -22313-4 0  99982 51140  53.2144 315.8307 0001463  83.2655 276.8504 15.08832523240287

JSON: /api/v1/satellites/51140 · /tle

For live sub-satellite position, see the globe view (requires WebGL).

§ Visibility from observer

Set your observer location to see the next 7 days of passes ≥ 10°. The values pass through the URL so the page stays shareable.

No JS? Fill the form by hand. The geolocation button needs JavaScript.